Waarnemingen

Advertentie
Mijn weer
Sevilla/San Pablo, Spanje (8391): temperatuur & dauwpunt: 12.02.2019 20:00:00 - 18.02.2019 20:00:00 (CET)Sevilla/San Pablo, Spanje (8391): windsnelheid: 12.02.2019 20:00:00 - 18.02.2019 20:00:00 (CET)Sevilla/San Pablo, Spanje (8391): windrichting: 12.02.2019 20:00:00 - 18.02.2019 20:00:00 (CET)Sevilla/San Pablo, Spanje (8391): luchtdruk: 12.02.2019 20:00:00 - 18.02.2019 20:00:00 (CET)Sevilla/San Pablo, Spanje (8391): zicht: 12.02.2019 20:00:00 - 18.02.2019 20:00:00 (CET)
Datum & Tijd tt [°C] td [°C] ff [km/u] ff [kn] dd ppp [hPa] vv [km]
18.02.2019 20:00:00 - - - - - - -
18.02.2019 19:00:00 17,0 9,5 0 0 N 1015,7 20
18.02.2019 18:00:00 17,7 8,9 11 6 ZW 1015,2 -
18.02.2019 17:00:00 18,9 8,1 8 4 W 1015,1 -
18.02.2019 16:00:00 19,6 7,3 2 1 NW 1015,0 -
18.02.2019 15:00:00 18,2 7,3 8 4 N 1015,4 -
18.02.2019 14:00:00 16,2 8,5 13 7 NNO 1016,0 -
18.02.2019 13:00:00 13,9 8,4 15 8 NO 1016,8 20
18.02.2019 12:00:00 12,1 8,2 16 9 NNO 1017,0 -
18.02.2019 11:00:00 11,3 7,0 11 6 NO 1017,1 -
18.02.2019 10:00:00 10,2 6,7 15 8 NO 1017,1 30
18.02.2019 09:00:00 9,6 6,6 9 5 NO 1016,6 -
18.02.2019 08:00:00 9,0 6,9 8 4 NO 1016,3 -
18.02.2019 07:00:00 8,3 6,8 8 4 NNO 1016,4 30
18.02.2019 06:00:00 8,5 6,8 11 6 NO 1016,7 -
18.02.2019 05:00:00 7,8 6,7 5 3 NO 1017,4 -
18.02.2019 04:00:00 8,5 7,3 0 0 N 1018,1 30
18.02.2019 03:00:00 8,7 7,2 0 0 N 1018,3 -
18.02.2019 02:00:00 8,7 7,6 11 6 O 1018,6 -
18.02.2019 01:00:00 9,1 7,7 8 4 OZO 1019,3 30
18.02.2019 00:00:00 10,6 8,1 0 0 N 1019,6 -
17.02.2019 23:00:00 12,6 8,7 5 3 WZW 1019,7 -
17.02.2019 22:00:00 13,8 8,8 9 5 WZW 1019,7 30
17.02.2019 21:00:00 14,9 8,8 13 7 WZW 1019,6 -
17.02.2019 20:00:00 16,2 8,7 13 7 WZW 1019,2 -
17.02.2019 19:00:00 16,4 7,3 9 5 WZW 1018,7 30
17.02.2019 18:00:00 20,3 7,5 8 4 WZW 1018,6 -
17.02.2019 17:00:00 21,1 7,1 5 3 WZW 1018,7 -
17.02.2019 16:00:00 20,9 6,3 4 2 OZO 1019,3 30
17.02.2019 15:00:00 19,9 4,3 4 2 ONO 1020,2 -
17.02.2019 14:00:00 19,0 5,3 5 3 NNW 1021,2 -
17.02.2019 13:00:00 17,7 6,6 8 4 O 1022,3 30
17.02.2019 12:00:00 16,0 7,0 8 4 OZO 1023,0 -
17.02.2019 11:00:00 13,2 7,8 11 6 NO 1023,0 -
17.02.2019 10:00:00 9,9 6,4 13 7 NO 1023,1 30
17.02.2019 09:00:00 7,4 5,7 8 4 NNO 1023,0 -
17.02.2019 08:00:00 6,8 5,4 13 7 NO 1022,4 -
17.02.2019 07:00:00 6,4 5,3 11 6 ONO 1022,3 30
17.02.2019 06:00:00 4,8 3,8 8 4 N 1022,4 -
17.02.2019 05:00:00 5,9 4,7 2 1 NW 1021,9 -
17.02.2019 04:00:00 6,1 4,6 8 4 NNO 1021,8 30
17.02.2019 03:00:00 7,2 4,5 0 0 N 1022,5 -
17.02.2019 02:00:00 8,1 5,3 2 1 NNO 1022,6 -
17.02.2019 01:00:00 8,4 5,1 11 6 NNO 1022,7 30
17.02.2019 00:00:00 10,0 4,6 4 2 NO 1022,8 -
16.02.2019 23:00:00 11,8 4,7 9 5 OZO 1023,0 -
16.02.2019 22:00:00 12,9 4,8 18 10 OZO 1022,7 30
16.02.2019 21:00:00 13,8 5,3 22 12 OZO 1022,3 -
16.02.2019 20:00:00 13,7 5,6 15 8 OZO 1021,8 -
16.02.2019 19:00:00 15,7 5,9 16 9 OZO 1021,4 30
16.02.2019 18:00:00 18,7 5,1 22 12 O 1020,8 -
16.02.2019 17:00:00 19,6 6,2 24 13 O 1020,6 -
16.02.2019 16:00:00 20,1 6,1 26 14 O 1020,6 30
16.02.2019 15:00:00 19,7 5,3 28 15 O 1021,1 -
16.02.2019 14:00:00 18,3 7,3 16 9 ONO 1022,1 -
16.02.2019 13:00:00 16,2 7,6 16 9 ONO 1023,2 30
16.02.2019 12:00:00 14,1 7,7 22 12 ONO 1023,6 -
16.02.2019 11:00:00 12,9 8,2 18 10 ONO 1023,3 -
16.02.2019 10:00:00 11,1 7,5 21 11 ONO 1023,1 20
16.02.2019 09:00:00 10,0 7,2 22 12 ONO 1022,4 -
16.02.2019 08:00:00 10,1 7,3 26 14 ONO 1021,9 -
16.02.2019 07:00:00 10,5 7,3 28 15 ONO 1021,5 30
16.02.2019 06:00:00 10,9 7,4 18 10 ONO 1021,4 -
16.02.2019 05:00:00 10,8 7,5 21 11 NO 1021,4 -
16.02.2019 04:00:00 10,4 7,8 15 8 NO 1021,5 30
16.02.2019 03:00:00 10,7 7,7 21 11 NO 1021,8 -
16.02.2019 02:00:00 10,4 7,6 11 6 NO 1022,3 -
16.02.2019 01:00:00 10,9 7,6 11 6 NO 1022,5 30
16.02.2019 00:00:00 9,5 6,7 5 3 NO 1022,6 -
15.02.2019 23:00:00 11,0 7,1 9 5 NO 1022,5 -
15.02.2019 22:00:00 12,5 7,2 9 5 ZO 1022,3 30
15.02.2019 21:00:00 13,8 7,5 11 6 ONO 1021,7 -
15.02.2019 20:00:00 15,3 8,3 11 6 ONO 1021,9 -
15.02.2019 19:00:00 16,9 8,3 13 7 ONO 1021,7 30
15.02.2019 18:00:00 18,6 8,6 18 10 O 1021,6 -
15.02.2019 17:00:00 20,0 8,9 21 11 O 1021,8 -
15.02.2019 16:00:00 19,8 8,4 26 14 ONO 1022,2 30
15.02.2019 15:00:00 19,7 8,7 22 12 O 1022,9 -
15.02.2019 14:00:00 17,9 9,3 24 13 NO 1024,1 -
15.02.2019 13:00:00 17,0 9,0 22 12 ONO 1025,5 30
15.02.2019 12:00:00 15,6 9,3 18 10 ONO 1026,3 -
15.02.2019 11:00:00 13,3 8,1 16 9 ONO 1026,5 -
15.02.2019 10:00:00 10,6 6,9 21 11 ONO 1026,5 30
15.02.2019 09:00:00 8,5 6,1 16 9 ONO 1026,2 -
15.02.2019 08:00:00 7,8 6,1 15 8 NO 1025,9 -
15.02.2019 07:00:00 8,3 6,6 18 10 ONO 1025,9 30
15.02.2019 06:00:00 8,3 6,6 16 9 ONO 1025,9 -
15.02.2019 05:00:00 6,8 5,6 9 5 NO 1025,9 -
15.02.2019 04:00:00 7,0 5,5 11 6 NO 1026,1 30
15.02.2019 03:00:00 7,2 5,7 9 5 NO 1026,6 -
15.02.2019 02:00:00 7,0 5,3 11 6 NNO 1027,1 -
15.02.2019 01:00:00 7,9 5,9 9 5 NO 1027,2 -
15.02.2019 00:00:00 8,0 6,0 9 5 NNO 1027,2 -
14.02.2019 23:00:00 9,7 6,6 4 2 N 1027,4 -
14.02.2019 22:00:00 12,7 7,3 8 4 ZZW 1027,1 30
14.02.2019 21:00:00 13,5 7,9 4 2 ZZW 1026,6 -
14.02.2019 20:00:00 15,1 8,0 9 5 OZO 1026,0 -
14.02.2019 19:00:00 19,2 6,2 0 0 N 1025,6 30
14.02.2019 18:00:00 21,2 6,2 0 0 N 1025,9 -
14.02.2019 17:00:00 20,7 6,4 4 2 NW 1026,0 -
14.02.2019 16:00:00 21,4 6,9 8 4 Z 1026,2 30
14.02.2019 15:00:00 20,5 7,0 4 2 O 1026,7 -
14.02.2019 14:00:00 19,1 8,6 5 3 O 1027,5 -
14.02.2019 13:00:00 17,3 9,1 9 5 NO 1028,6 30
14.02.2019 12:00:00 15,5 8,6 9 5 ONO 1029,1 -
14.02.2019 11:00:00 13,3 8,2 11 6 NO 1029,2 -
14.02.2019 10:00:00 10,6 7,1 9 5 ONO 1029,0 30
14.02.2019 09:00:00 8,1 5,9 11 6 ONO 1028,6 -
14.02.2019 08:00:00 7,7 5,8 15 8 ONO 1028,0 -
14.02.2019 07:00:00 7,7 6,2 11 6 ONO 1027,8 30
14.02.2019 06:00:00 7,1 5,7 8 4 NO 1027,7 -
14.02.2019 05:00:00 6,6 5,1 8 4 NO 1027,4 -
14.02.2019 04:00:00 7,3 5,6 11 6 NO 1027,5 30
14.02.2019 03:00:00 7,2 5,3 9 5 NO 1027,7 -
14.02.2019 02:00:00 8,0 5,5 9 5 NO 1027,7 -
14.02.2019 01:00:00 7,7 5,5 5 3 NO 1027,7 30
14.02.2019 00:00:00 8,5 6,6 0 0 N 1027,8 -
13.02.2019 23:00:00 9,4 7,0 5 3 ZO 1027,7 -
13.02.2019 22:00:00 9,7 7,0 8 4 ZZO 1027,3 30
13.02.2019 21:00:00 12,2 7,6 0 0 N 1026,9 -
13.02.2019 20:00:00 14,5 8,0 0 0 N 1026,7 -
13.02.2019 19:00:00 17,3 7,1 8 4 ZW 1026,3 30
13.02.2019 18:00:00 19,8 7,5 9 5 ZW 1026,1 -
13.02.2019 17:00:00 20,3 6,1 8 4 ZO 1026,3 -
13.02.2019 16:00:00 20,1 6,5 8 4 OZO 1026,7 30
13.02.2019 15:00:00 19,5 6,0 11 6 O 1026,9 -
13.02.2019 14:00:00 18,4 6,3 16 9 O 1027,6 -
13.02.2019 13:00:00 17,2 6,9 18 10 O 1028,6 30
13.02.2019 12:00:00 15,7 7,1 22 12 O 1029,1 -
13.02.2019 11:00:00 13,6 8,4 21 11 NO 1029,2 -
13.02.2019 10:00:00 11,4 6,7 16 9 NO 1029,2 30
13.02.2019 09:00:00 8,7 6,1 13 7 ONO 1029,0 -
13.02.2019 08:00:00 8,3 6,1 13 7 ONO 1028,3 -
13.02.2019 07:00:00 8,7 6,3 18 10 ONO 1028,0 30
13.02.2019 06:00:00 9,1 6,7 16 9 ONO 1028,0 -
13.02.2019 05:00:00 9,1 6,9 11 6 ONO 1028,0 -
13.02.2019 04:00:00 9,5 7,3 13 7 NO 1028,3 30
13.02.2019 03:00:00 9,8 7,2 13 7 ONO 1028,6 -
13.02.2019 02:00:00 8,5 6,5 15 8 NNO 1028,9 -
13.02.2019 01:00:00 8,4 6,2 11 6 NNO 1029,1 30
13.02.2019 00:00:00 9,3 6,4 13 7 NNO 1029,3 -
12.02.2019 23:00:00 9,8 7,2 13 7 NNO 1029,6 -
12.02.2019 22:00:00 12,0 6,7 11 6 ONO 1029,4 30
12.02.2019 21:00:00 12,2 8,2 13 7 NNO 1029,2 -
12.02.2019 20:00:00 14,3 9,5 8 4 ONO 1028,8 -

tt = temperatuur
td = dauwpunt
ff = windsnelheid
dd = windrichting
ppp = luchtdruk
vv = zicht

Weerstations in de omgeving